TimeEST,TemperatureF,Dew PointF,Humidity,Sea Level PressureIn,VisibilityMPH,Wind Direction,Wind SpeedMPH,Gust SpeedMPH,PrecipitationIn,Events,Conditions,WindDirDegrees,DateUTC
12:51 AM,42.1,41.0,96,30.18,10.0,Calm,Calm,-,N/A,,Mostly Cloudy,0,2002-11-01 05:51:00
1:51 AM,45.0,43.0,93,30.19,10.0,WNW,4.6,-,N/A,,Overcast,300,2002-11-01 06:51:00
2:51 AM,41.0,39.9,96,30.18,10.0,Calm,Calm,-,N/A,,Scattered Clouds,0,2002-11-01 07:51:00
3:51 AM,39.9,39.0,97,30.17,7.0,Calm,Calm,-,N/A,,Scattered Clouds,0,2002-11-01 08:51:00
4:51 AM,42.1,41.0,96,30.17,9.0,Calm,Calm,-,N/A,,Overcast,0,2002-11-01 09:51:00
5:51 AM,44.1,42.1,93,30.19,10.0,Calm,Calm,-,N/A,,Overcast,0,2002-11-01 10:51:00
6:51 AM,44.1,42.1,93,30.20,10.0,Calm,Calm,-,N/A,,Overcast,0,2002-11-01 11:51:00
7:51 AM,45.0,43.0,93,30.21,10.0,Calm,Calm,-,N/A,,Mostly Cloudy,0,2002-11-01 12:51:00
8:51 AM,48.9,44.1,83,30.24,10.0,Variable,3.5,-,N/A,,Mostly Cloudy,0,2002-11-01 13:51:00
9:51 AM,51.1,39.0,63,30.22,10.0,Calm,Calm,-,N/A,,Mostly Cloudy,0,2002-11-01 14:51:00
10:51 AM,53.1,39.0,59,30.22,10.0,Variable,6.9,-,N/A,,Mostly Cloudy,0,2002-11-01 15:51:00
11:51 AM,54.0,37.9,55,30.19,10.0,Variable,5.8,-,N/A,,Mostly Cloudy,0,2002-11-01 16:51:00
12:51 PM,57.0,41.0,55,30.17,10.0,Variable,4.6,-,N/A,,Mostly Cloudy,0,2002-11-01 17:51:00
1:51 PM,57.0,41.0,55,30.15,10.0,WNW,8.1,-,N/A,,Mostly Cloudy,300,2002-11-01 18:51:00
2:51 PM,57.0,39.9,53,30.14,10.0,NNW,5.8,-,N/A,,Mostly Cloudy,330,2002-11-01 19:51:00
3:51 PM,55.0,39.0,55,30.13,10.0,Variable,6.9,-,N/A,,Mostly Cloudy,0,2002-11-01 20:51:00
4:51 PM,54.0,39.9,59,30.14,10.0,North,5.8,-,N/A,,Mostly Cloudy,360,2002-11-01 21:51:00
5:51 PM,51.1,37.9,61,30.16,10.0,NNW,6.9,-,N/A,,Scattered Clouds,330,2002-11-01 22:51:00
6:51 PM,46.0,39.9,79,30.17,10.0,NW,3.5,-,N/A,,Partly Cloudy,320,2002-11-01 23:51:00
7:51 PM,45.0,39.0,80,30.17,10.0,Calm,Calm,-,N/A,,Scattered Clouds,0,2002-11-02 00:51:00
8:51 PM,42.1,39.9,92,30.17,10.0,Calm,Calm,-,N/A,,Scattered Clouds,0,2002-11-02 01:51:00
9:51 PM,41.0,37.9,89,30.18,10.0,Calm,Calm,-,N/A,,Partly Cloudy,0,2002-11-02 02:51:00
10:51 PM,41.0,36.0,82,30.18,10.0,Calm,Calm,-,N/A,,Scattered Clouds,0,2002-11-02 03:51:00
11:51 PM,41.0,34.0,76,30.17,10.0,NW,5.8,-,N/A,,Partly Cloudy,320,2002-11-02 04:51:00